STARLINK-1975 (47573 NORAD) Tracking and Keplerian Element Data

This shows tracking and keplerian element data for the satellite.

Feedback or suggestion? Click here.




ElementValue
Catalog47573
NameSTARLINK-1975
Epoch Orbit1175
Epoch Day106.25002315
Epoch Year2021
RAAN136.3393
Inclination53.0536
Eccentricity0.0004265
Argument of Perigee9.4267
Mean Anonmoly159.5416
Mean Motion15.62773192
Decay Rate-7.181E-05
L11 47573U 21009AB 21106.25002315 -.00007181 00000-0 -72531-4 0 9997
L22 47573 53.0536 136.3393 0004265 9.4267 159.5416 15.62773192 11751

Live tracking and technical data element details for STARLINK-1975 (NORAD 47573). STARLINK-1975 can be tracked NOW for your location showing map with azimuth and elevation plus other details from your city location.

Track the satellite on the map from your city or location and see movement details for azimuth, elevation, latitude, longitude, range, height, and movement on the map or in text.







IsCatalogInMostPopularTable: catalog: 47573, numindb: 17
Update: records affected: 1



GetName: 47573 STARLINK-1975

Hit Count: updated at: Fri, 16 Apr 2021 11:43:15 GMT